Time,TemperatureF,DewpointF,PressureIn,WindDirection,WindDirectionDegrees,WindSpeedMPH,WindSpeedGustMPH,Humidity,HourlyPrecipIn,Conditions,Clouds,dailyrainin,SoftwareType,DateUTC
2013-02-05 00:00:00,30.1,27.8,30.00,ESE,111,4.0,11.0,91,0.00,,---,0.00,VWS V14.01,2013-02-05 06:00:00,
2013-02-05 00:05:00,30.2,27.9,30.00,SE,142,3.0,8.0,91,0.00,,---,0.00,VWS V14.01,2013-02-05 06:05:00,
2013-02-05 00:10:00,30.0,27.7,30.00,SSE,155,4.0,8.0,91,0.00,,---,0.00,VWS V14.01,2013-02-05 06:10:00,
2013-02-05 00:15:00,29.9,27.6,30.01,South,183,3.0,8.0,91,0.00,,---,0.00,VWS V14.01,2013-02-05 06:15:00,
2013-02-05 00:20:00,29.7,27.4,30.01,SSE,163,0.0,8.0,91,0.00,,---,0.00,VWS V14.01,2013-02-05 06:20:00,
2013-02-05 00:25:00,29.5,27.5,30.01,SSE,163,1.0,8.0,92,0.00,,---,0.00,VWS V14.01,2013-02-05 06:25:00,
2013-02-05 00:30:00,29.5,27.5,30.01,SE,137,1.0,8.0,92,0.00,,---,0.00,VWS V14.01,2013-02-05 06:30:00,
2013-02-05 00:35:00,29.4,27.4,30.01,SSE,152,2.0,2.0,92,0.00,,---,0.00,VWS V14.01,2013-02-05 06:35:00,
2013-02-05 00:40:00,29.3,27.3,30.01,SE,126,2.0,4.0,92,0.00,,---,0.00,VWS V14.01,2013-02-05 06:40:00,
2013-02-05 00:45:00,29.2,27.2,30.01,SE,130,1.0,5.0,92,0.00,,---,0.00,VWS V14.01,2013-02-05 06:45:00,
2013-02-05 00:50:00,29.1,27.1,30.01,SE,133,2.0,5.0,92,0.00,,---,0.00,VWS V14.01,2013-02-05 06:50:00,
2013-02-05 00:55:00,29.1,27.3,30.00,SE,125,2.0,5.0,93,0.00,,---,0.00,VWS V14.01,2013-02-05 06:55:00,
2013-02-05 01:00:00,29.0,27.2,30.01,SE,139,3.0,5.0,93,0.00,,---,0.00,VWS V14.01,2013-02-05 07:00:00,
2013-02-05 01:05:00,29.1,27.3,30.01,ESE,121,1.0,4.0,93,0.00,,---,0.00,VWS V14.01,2013-02-05 07:05:00,
2013-02-05 01:10:00,29.3,27.5,30.00,ESE,120,0.0,4.0,93,0.00,,---,0.00,VWS V14.01,2013-02-05 07:10:00,
2013-02-05 01:15:00,29.4,27.6,30.00,ESE,120,1.0,4.0,93,0.00,,---,0.00,VWS V14.01,2013-02-05 07:15:00,
2013-02-05 01:20:00,29.3,27.3,30.00,ESE,118,1.0,4.0,92,0.00,,---,0.00,VWS V14.01,2013-02-05 07:20:00,
2013-02-05 01:25:00,29.2,27.2,30.00,ESE,117,1.0,4.0,92,0.00,,---,0.00,VWS V14.01,2013-02-05 07:25:00,
2013-02-05 01:30:00,29.3,27.5,30.00,ESE,116,1.0,4.0,93,0.00,,---,0.00,VWS V14.01,2013-02-05 07:30:00,
2013-02-05 01:35:00,29.4,27.6,30.00,SE,127,1.0,2.0,93,0.00,,---,0.00,VWS V14.01,2013-02-05 07:35:00,
2013-02-05 01:40:00,29.6,27.8,30.00,SE,128,1.0,2.0,93,0.00,,---,0.00,VWS V14.01,2013-02-05 07:40:00,
2013-02-05 01:45:00,29.7,27.7,30.00,ESE,118,1.0,4.0,92,0.00,,---,0.00,VWS V14.01,2013-02-05 07:45:00,
2013-02-05 01:50:00,29.7,27.7,29.99,SE,125,1.0,4.0,92,0.00,,---,0.00,VWS V14.01,2013-02-05 07:50:00,
2013-02-05 01:55:00,29.7,27.7,29.99,SE,126,2.0,4.0,92,0.00,,---,0.00,VWS V14.01,2013-02-05 07:55:00,
2013-02-05 02:00:00,29.6,27.6,29.99,ESE,119,1.0,4.0,92,0.00,,---,0.00,VWS V14.01,2013-02-05 08:00:00,
2013-02-05 02:05:00,29.7,27.7,29.99,ESE,119,2.0,3.0,92,0.00,,---,0.00,VWS V14.01,2013-02-05 08:05:00,
2013-02-05 02:10:00,29.7,27.7,29.99,East,96,1.0,3.0,92,0.00,,---,0.00,VWS V14.01,2013-02-05 08:10:00,
2013-02-05 02:15:00,29.7,27.7,30.00,ESE,120,1.0,4.0,92,0.00,,---,0.00,VWS V14.01,2013-02-05 08:15:00,
2013-02-05 02:20:00,29.6,27.6,30.00,ESE,106,3.0,5.0,92,0.00,,---,0.00,VWS V14.01,2013-02-05 08:20:00,
2013-02-05 02:25:00,29.6,27.6,30.00,ESE,114,4.0,5.0,92,0.00,,---,0.00,VWS V14.01,2013-02-05 08:25:00,
2013-02-05 02:30:00,29.4,27.1,30.00,ESE,120,1.0,5.0,91,0.00,,---,0.00,VWS V14.01,2013-02-05 08:30:00,
2013-02-05 02:35:00,29.3,27.0,30.00,SE,126,1.0,3.0,91,0.00,,---,0.00,VWS V14.01,2013-02-05 08:35:00,
2013-02-05 02:40:00,29.2,27.2,30.00,ESE,120,1.0,3.0,92,0.00,,---,0.00,VWS V14.01,2013-02-05 08:40:00,
2013-02-05 02:45:00,29.1,27.1,30.01,ESE,118,1.0,3.0,92,0.00,,---,0.00,VWS V14.01,2013-02-05 08:45:00,
2013-02-05 02:50:00,29.1,27.1,30.00,ESE,120,2.0,3.0,92,0.00,,---,0.00,VWS V14.01,2013-02-05 08:50:00,
2013-02-05 02:55:00,29.0,27.0,30.01,ESE,120,2.0,5.0,92,0.00,,---,0.00,VWS V14.01,2013-02-05 08:55:00,
2013-02-05 03:00:00,29.0,27.0,30.00,ESE,114,2.0,5.0,92,0.00,,---,0.00,VWS V14.01,2013-02-05 09:00:00,
2013-02-05 03:05:00,29.0,27.0,30.00,ESE,117,1.0,4.0,92,0.00,,---,0.00,VWS V14.01,2013-02-05 09:05:00,
2013-02-05 03:10:00,29.1,27.1,30.00,ESE,120,3.0,4.0,92,0.00,,---,0.00,VWS V14.01,2013-02-05 09:10:00,
2013-02-05 03:15:00,29.3,27.3,30.00,ESE,108,3.0,6.0,92,0.00,,---,0.00,VWS V14.01,2013-02-05 09:15:00,
2013-02-05 03:20:00,29.5,27.5,30.00,ESE,103,5.0,6.0,92,0.00,,---,0.00,VWS V14.01,2013-02-05 09:20:00,
2013-02-05 03:25:00,29.6,27.3,30.00,ESE,120,1.0,6.0,91,0.00,,---,0.00,VWS V14.01,2013-02-05 09:25:00,
2013-02-05 03:30:00,29.3,26.7,30.00,ESE,114,0.0,6.0,90,0.00,,---,0.00,VWS V14.01,2013-02-05 09:30:00,
2013-02-05 03:35:00,29.0,26.4,30.00,SE,124,1.0,2.0,90,0.00,,---,0.00,VWS V14.01,2013-02-05 09:35:00,
2013-02-05 03:40:00,28.8,26.5,29.99,ESE,118,3.0,4.0,91,0.00,,---,0.00,VWS V14.01,2013-02-05 09:40:00,
2013-02-05 03:45:00,28.8,26.5,30.00,ESE,120,2.0,4.0,91,0.00,,---,0.00,VWS V14.01,2013-02-05 09:45:00,
2013-02-05 03:50:00,28.9,26.6,29.99,SE,124,2.0,4.0,91,0.00,,---,0.00,VWS V14.01,2013-02-05 09:50:00,
2013-02-05 03:55:00,29.0,26.7,30.00,ESE,114,2.0,5.0,91,0.00,,---,0.00,VWS V14.01,2013-02-05 09:55:00,
2013-02-05 04:00:00,29.0,26.4,30.00,ESE,112,3.0,7.0,90,0.00,,---,0.00,VWS V14.01,2013-02-05 10:00:00,
2013-02-05 04:05:00,29.1,26.5,30.00,ESE,121,2.0,3.0,90,0.00,,---,0.00,VWS V14.01,2013-02-05 10:05:00,
2013-02-05 04:10:00,29.2,26.6,30.00,ESE,123,1.0,4.0,90,0.00,,---,0.00,VWS V14.01,2013-02-05 10:10:00,
2013-02-05 04:15:00,29.4,26.8,30.00,ESE,120,0.0,4.0,90,0.00,,---,0.00,VWS V14.01,2013-02-05 10:15:00,
2013-02-05 04:20:00,29.7,26.9,30.00,SE,146,4.0,6.0,89,0.00,,---,0.00,VWS V14.01,2013-02-05 10:20:00,
2013-02-05 04:25:00,30.1,27.0,30.00,SE,124,6.0,6.0,88,0.00,,---,0.00,VWS V14.01,2013-02-05 10:25:00,
2013-02-05 04:30:00,30.4,27.0,29.99,SE,142,2.0,6.0,87,0.00,,---,0.00,VWS V14.01,2013-02-05 10:30:00,
2013-02-05 04:35:00,30.5,26.8,29.99,SE,136,5.0,5.0,86,0.00,,---,0.00,VWS V14.01,2013-02-05 10:35:00,
2013-02-05 04:40:00,30.6,26.9,30.00,SE,144,4.0,5.0,86,0.00,,---,0.00,VWS V14.01,2013-02-05 10:40:00,
2013-02-05 04:45:00,30.5,26.8,30.00,SSE,152,3.0,5.0,86,0.00,,---,0.00,VWS V14.01,2013-02-05 10:45:00,
2013-02-05 04:50:00,30.5,26.5,30.01,SE,146,3.0,8.0,85,0.00,,---,0.00,VWS V14.01,2013-02-05 10:50:00,
2013-02-05 04:55:00,30.5,26.5,30.01,ESE,123,3.0,8.0,85,0.00,,---,0.00,VWS V14.01,2013-02-05 10:55:00,
2013-02-05 05:00:00,30.3,26.3,30.01,SE,139,3.0,8.0,85,0.00,,---,0.00,VWS V14.01,2013-02-05 11:00:00,
2013-02-05 05:05:00,30.1,26.1,30.01,SE,133,2.0,2.0,85,0.00,,---,0.00,VWS V14.01,2013-02-05 11:05:00,
2013-02-05 05:10:00,30.0,26.3,30.02,SE,141,2.0,4.0,86,0.00,,---,0.00,VWS V14.01,2013-02-05 11:10:00,
2013-02-05 05:15:00,29.9,26.0,30.02,ESE,121,2.0,5.0,85,0.00,,---,0.00,VWS V14.01,2013-02-05 11:15:00,
2013-02-05 05:20:00,29.8,25.9,30.02,ESE,118,2.0,5.0,85,0.00,,---,0.00,VWS V14.01,2013-02-05 11:20:00,
2013-02-05 05:25:00,29.7,26.0,30.03,ESE,119,2.0,6.0,86,0.00,,---,0.00,VWS V14.01,2013-02-05 11:25:00,
2013-02-05 05:30:00,29.6,25.9,30.03,SE,126,2.0,6.0,86,0.00,,---,0.00,VWS V14.01,2013-02-05 11:30:00,
2013-02-05 05:35:00,29.4,25.7,30.02,ESE,120,1.0,4.0,86,0.00,,---,0.00,VWS V14.01,2013-02-05 11:35:00,
2013-02-05 05:40:00,29.2,25.5,30.03,SE,125,3.0,4.0,86,0.00,,---,0.00,VWS V14.01,2013-02-05 11:40:00,
2013-02-05 05:45:00,29.1,25.4,30.03,SE,130,0.0,4.0,86,0.00,,---,0.00,VWS V14.01,2013-02-05 11:45:00,
2013-02-05 05:50:00,29.1,25.7,30.03,SE,130,2.0,4.0,87,0.00,,---,0.00,VWS V14.01,2013-02-05 11:50:00,
2013-02-05 05:55:00,29.1,25.4,30.03,SE,127,1.0,4.0,86,0.00,,---,0.00,VWS V14.01,2013-02-05 11:55:00,
2013-02-05 06:00:00,28.9,25.2,30.04,SE,125,1.0,4.0,86,0.00,,---,0.00,VWS V14.01,2013-02-05 12:00:00,
2013-02-05 06:05:00,28.8,25.1,30.04,SE,124,2.0,3.0,86,0.00,,---,0.00,VWS V14.01,2013-02-05 12:05:00,
2013-02-05 06:10:00,28.8,25.1,30.04,SE,132,1.0,3.0,86,0.00,,---,0.00,VWS V14.01,2013-02-05 12:10:00,
2013-02-05 06:15:00,28.8,25.1,30.04,SE,130,1.0,4.0,86,0.00,,---,0.00,VWS V14.01,2013-02-05 12:15:00,
2013-02-05 06:20:00,28.9,25.2,30.04,SE,130,1.0,4.0,86,0.00,,---,0.00,VWS V14.01,2013-02-05 12:20:00,
2013-02-05 06:25:00,28.7,25.0,30.04,ESE,123,1.0,4.0,86,0.00,,---,0.00,VWS V14.01,2013-02-05 12:25:00,
2013-02-05 06:30:00,28.6,25.0,30.05,SE,132,2.0,4.0,86,0.00,,---,0.00,VWS V14.01,2013-02-05 12:30:00,
2013-02-05 06:35:00,28.5,24.9,30.05,SE,125,1.0,2.0,86,0.00,,---,0.00,VWS V14.01,2013-02-05 12:35:00,
2013-02-05 06:40:00,28.4,24.8,30.05,SE,131,1.0,2.0,86,0.00,,---,0.00,VWS V14.01,2013-02-05 12:40:00,
2013-02-05 06:45:00,28.2,24.6,30.05,SE,131,0.0,2.0,86,0.00,,---,0.00,VWS V14.01,2013-02-05 12:45:00,
2013-02-05 06:50:00,28.1,24.7,30.05,SE,132,0.0,2.0,87,0.00,,---,0.00,VWS V14.01,2013-02-05 12:50:00,
2013-02-05 06:55:00,28.1,24.7,30.05,SE,128,2.0,3.0,87,0.00,,---,0.00,VWS V14.01,2013-02-05 12:55:00,
2013-02-05 07:00:00,28.1,24.7,30.05,ESE,123,2.0,3.0,87,0.00,,---,0.00,VWS V14.01,2013-02-05 13:00:00,
2013-02-05 07:05:00,28.0,24.6,30.06,SE,125,2.0,2.0,87,0.00,,---,0.00,VWS V14.01,2013-02-05 13:05:00,
2013-02-05 07:10:00,28.0,24.6,30.06,SE,125,0.0,2.0,87,0.00,,---,0.00,VWS V14.01,2013-02-05 13:10:00,
2013-02-05 07:15:00,27.8,24.4,30.06,SE,125,0.0,2.0,87,0.00,,---,0.00,VWS V14.01,2013-02-05 13:15:00,
2013-02-05 07:20:00,27.7,24.3,30.06,SE,124,1.0,2.0,87,0.00,,---,0.00,VWS V14.01,2013-02-05 13:20:00,
2013-02-05 07:25:00,27.6,24.2,30.06,SE,124,0.0,2.0,87,0.00,,---,0.00,VWS V14.01,2013-02-05 13:25:00,
2013-02-05 07:30:00,27.6,24.2,30.06,SE,125,1.0,2.0,87,0.00,,---,0.00,VWS V14.01,2013-02-05 13:30:00,
2013-02-05 07:35:00,27.5,24.1,30.07,ESE,123,2.0,2.0,87,0.00,,---,0.00,VWS V14.01,2013-02-05 13:35:00,
2013-02-05 07:40:00,27.6,24.2,30.07,SE,132,2.0,3.0,87,0.00,,---,0.00,VWS V14.01,2013-02-05 13:40:00,
2013-02-05 07:45:00,27.7,24.3,30.07,SE,127,2.0,4.0,87,0.00,,---,0.00,VWS V14.01,2013-02-05 13:45:00,
2013-02-05 07:50:00,27.9,24.5,30.07,SE,130,4.0,5.0,87,0.00,,---,0.00,VWS V14.01,2013-02-05 13:50:00,
2013-02-05 07:55:00,28.1,24.5,30.07,ESE,123,2.0,5.0,86,0.00,,---,0.00,VWS V14.01,2013-02-05 13:55:00,
2013-02-05 08:00:00,28.1,24.5,30.07,ESE,123,0.0,5.0,86,0.00,,---,0.00,VWS V14.01,2013-02-05 14:00:00,
2013-02-05 08:05:00,28.2,24.6,30.07,ESE,123,1.0,3.0,86,0.00,,---,0.00,VWS V14.01,2013-02-05 14:05:00,
2013-02-05 08:10:00,28.5,24.9,30.08,SE,132,2.0,4.0,86,0.00,,---,0.00,VWS V14.01,2013-02-05 14:10:00,
2013-02-05 08:15:00,28.9,25.0,30.09,SE,142,2.0,5.0,85,0.00,,---,0.00,VWS V14.01,2013-02-05 14:15:00,
2013-02-05 08:20:00,29.3,25.1,30.09,SE,134,3.0,5.0,84,0.00,,---,0.00,VWS V14.01,2013-02-05 14:20:00,
2013-02-05 08:25:00,29.6,25.4,30.10,SE,134,2.0,5.0,84,0.00,,---,0.00,VWS V14.01,2013-02-05 14:25:00,
2013-02-05 08:30:00,30.1,25.6,30.10,SE,142,4.0,5.0,83,0.00,,---,0.00,VWS V14.01,2013-02-05 14:30:00,
2013-02-05 08:35:00,30.8,26.0,30.11,SSE,156,3.0,5.0,82,0.00,,---,0.00,VWS V14.01,2013-02-05 14:35:00,
2013-02-05 08:40:00,31.6,26.5,30.12,SE,146,5.0,6.0,81,0.00,,---,0.00,VWS V14.01,2013-02-05 14:40:00,
2013-02-05 08:45:00,32.6,27.1,30.12,SE,140,6.0,7.0,80,0.00,,---,0.00,VWS V14.01,2013-02-05 14:45:00,
2013-02-05 08:50:00,33.5,27.4,30.12,SE,137,2.0,7.0,78,0.00,,---,0.00,VWS V14.01,2013-02-05 14:50:00,
2013-02-05 08:55:00,34.2,27.4,30.12,SE,135,2.0,7.0,76,0.00,,---,0.00,VWS V14.01,2013-02-05 14:55:00,
2013-02-05 09:00:00,35.0,27.9,30.12,SSE,149,3.0,7.0,75,0.00,,---,0.00,VWS V14.01,2013-02-05 15:00:00,
2013-02-05 09:05:00,35.7,28.2,30.13,SE,137,6.0,9.0,74,0.00,,---,0.00,VWS V14.01,2013-02-05 15:05:00,
2013-02-05 09:10:00,36.3,28.5,30.13,SSE,166,4.0,9.0,73,0.00,,---,0.00,VWS V14.01,2013-02-05 15:10:00,
2013-02-05 09:15:00,36.8,28.6,30.13,SSE,148,6.0,12.0,72,0.00,,---,0.00,VWS V14.01,2013-02-05 15:15:00,
2013-02-05 09:20:00,37.2,29.0,30.13,SSE,149,3.0,12.0,72,0.00,,---,0.00,VWS V14.01,2013-02-05 15:20:00,
2013-02-05 09:25:00,37.7,29.2,30.13,SSE,153,10.0,12.0,71,0.00,,---,0.00,VWS V14.01,2013-02-05 15:25:00,
2013-02-05 09:30:00,38.4,29.1,30.14,SSW,200,4.0,12.0,69,0.00,,---,0.00,VWS V14.01,2013-02-05 15:30:00,
2013-02-05 09:35:00,38.9,29.2,30.14,SE,145,3.0,12.0,68,0.00,,---,0.00,VWS V14.01,2013-02-05 15:35:00,
2013-02-05 09:40:00,39.2,29.2,30.14,South,177,3.0,15.0,67,0.00,,---,0.00,VWS V14.01,2013-02-05 15:40:00,
2013-02-05 09:45:00,39.4,29.4,30.14,South,187,4.0,15.0,67,0.00,,---,0.00,VWS V14.01,2013-02-05 15:45:00,
2013-02-05 09:50:00,39.8,30.1,30.14,SSE,154,3.0,15.0,68,0.00,,---,0.00,VWS V14.01,2013-02-05 15:50:00,
2013-02-05 09:55:00,40.3,30.2,30.14,South,172,10.0,15.0,67,0.00,,---,0.00,VWS V14.01,2013-02-05 15:55:00,
2013-02-05 10:00:00,40.8,30.3,30.14,South,184,10.0,15.0,66,0.00,,---,0.00,VWS V14.01,2013-02-05 16:00:00,
2013-02-05 10:05:00,41.2,30.3,30.14,SSE,157,6.0,6.0,65,0.00,,---,0.00,VWS V14.01,2013-02-05 16:05:00,
2013-02-05 10:10:00,41.7,30.8,30.14,SSW,193,6.0,10.0,65,0.00,,---,0.00,VWS V14.01,2013-02-05 16:10:00,
2013-02-05 10:15:00,42.3,31.4,30.15,SSE,165,5.0,12.0,65,0.00,,---,0.00,VWS V14.01,2013-02-05 16:15:00,
2013-02-05 10:20:00,42.8,31.5,30.15,SSE,155,2.0,12.0,64,0.00,,---,0.00,VWS V14.01,2013-02-05 16:20:00,
2013-02-05 10:25:00,43.4,31.7,30.15,SE,137,6.0,12.0,63,0.00,,---,0.00,VWS V14.01,2013-02-05 16:25:00,
2013-02-05 10:30:00,43.9,31.7,30.15,WSW,239,8.0,13.0,62,0.00,,---,0.00,VWS V14.01,2013-02-05 16:30:00,
2013-02-05 10:35:00,44.6,32.0,30.15,South,179,4.0,7.0,61,0.00,,---,0.00,VWS V14.01,2013-02-05 16:35:00,
2013-02-05 10:40:00,45.2,31.7,30.15,SSE,156,10.0,12.0,59,0.00,,---,0.00,VWS V14.01,2013-02-05 16:40:00,
2013-02-05 10:45:00,45.6,31.7,30.15,South,170,9.0,16.0,58,0.00,,---,0.00,VWS V14.01,2013-02-05 16:45:00,
2013-02-05 10:49:00,46.1,30.9,30.15,South,189,5.0,16.0,55,0.00,,---,0.00,VWS V14.01,2013-02-05 16:49:00,
2013-02-05 10:54:00,46.8,30.1,30.15,South,177,6.0,16.0,52,0.00,,---,0.00,VWS V14.01,2013-02-05 16:54:00,
2013-02-05 10:59:00,47.2,29.0,30.15,SSW,193,11.0,18.0,49,0.00,,---,0.00,VWS V14.01,2013-02-05 16:59:00,
2013-02-05 11:04:00,47.6,29.4,30.16,WSW,242,4.0,10.0,49,0.00,,---,0.00,VWS V14.01,2013-02-05 17:04:00,
2013-02-05 11:09:00,47.7,29.0,30.17,South,182,7.0,16.0,48,0.00,,---,0.00,VWS V14.01,2013-02-05 17:09:00,
2013-02-05 11:14:00,48.1,29.9,30.17,SSW,213,9.0,16.0,49,0.00,,---,0.00,VWS V14.01,2013-02-05 17:14:00,
2013-02-05 11:19:00,48.2,29.5,30.17,SSE,164,10.0,16.0,48,0.00,,---,0.00,VWS V14.01,2013-02-05 17:19:00,
2013-02-05 11:24:00,48.2,29.5,30.17,SW,232,10.0,16.0,48,0.00,,---,0.00,VWS V14.01,2013-02-05 17:24:00,
2013-02-05 11:29:00,48.1,29.4,30.17,South,183,3.0,16.0,48,0.00,,---,0.00,VWS V14.01,2013-02-05 17:29:00,
2013-02-05 11:34:00,48.3,29.5,30.17,SSW,193,4.0,9.0,48,0.00,,---,0.00,VWS V14.01,2013-02-05 17:34:00,
2013-02-05 11:39:00,48.4,29.1,30.18,South,187,6.0,14.0,47,0.00,,---,0.00,VWS V14.01,2013-02-05 17:39:00,
2013-02-05 11:44:00,48.4,29.6,30.18,SW,222,5.0,14.0,48,0.00,,---,0.00,VWS V14.01,2013-02-05 17:44:00,
2013-02-05 11:49:00,48.7,29.9,30.18,South,180,2.0,14.0,48,0.00,,---,0.00,VWS V14.01,2013-02-05 17:49:00,
2013-02-05 11:54:00,48.8,29.0,30.18,South,170,8.0,14.0,46,0.00,,---,0.00,VWS V14.01,2013-02-05 17:54:00,
2013-02-05 11:59:00,48.9,29.0,30.18,SE,130,6.0,14.0,46,0.00,,---,0.00,VWS V14.01,2013-02-05 17:59:00,
2013-02-05 12:04:00,49.0,29.1,30.18,South,176,3.0,11.0,46,0.00,,---,0.00,VWS V14.01,2013-02-05 18:04:00,
2013-02-05 12:09:00,49.1,29.2,30.17,South,184,5.0,11.0,46,0.00,,---,0.00,VWS V14.01,2013-02-05 18:09:00,
2013-02-05 12:14:00,49.1,29.2,30.17,South,184,6.0,13.0,46,0.00,,---,0.00,VWS V14.01,2013-02-05 18:14:00,
2013-02-05 12:19:00,49.4,29.5,30.17,SSW,208,6.0,13.0,46,0.00,,---,0.00,VWS V14.01,2013-02-05 18:19:00,
2013-02-05 12:24:00,49.7,28.7,30.17,SW,214,7.0,13.0,44,0.00,,---,0.00,VWS V14.01,2013-02-05 18:24:00,
2013-02-05 12:29:00,49.8,29.3,30.17,WSW,241,5.0,14.0,45,0.00,,---,0.00,VWS V14.01,2013-02-05 18:29:00,
2013-02-05 12:34:00,49.7,28.7,30.17,South,180,9.0,13.0,44,0.00,,---,0.00,VWS V14.01,2013-02-05 18:34:00,
2013-02-05 12:39:00,49.6,29.1,30.16,SSE,156,3.0,13.0,45,0.00,,---,0.00,VWS V14.01,2013-02-05 18:39:00,
2013-02-05 12:44:00,49.8,29.3,30.16,South,187,5.0,13.0,45,0.00,,---,0.00,VWS V14.01,2013-02-05 18:44:00,
2013-02-05 12:49:00,49.9,28.9,30.16,SSE,166,4.0,13.0,44,0.00,,---,0.00,VWS V14.01,2013-02-05 18:49:00,
2013-02-05 12:54:00,50.4,29.3,30.16,SSE,162,6.0,13.0,44,0.00,,---,0.00,VWS V14.01,2013-02-05 18:54:00,
2013-02-05 12:59:00,50.6,29.5,30.17,SE,142,2.0,13.0,44,0.00,,---,0.00,VWS V14.01,2013-02-05 18:59:00,
2013-02-05 13:04:00,50.8,29.1,30.16,SSE,165,5.0,11.0,43,0.00,,---,0.00,VWS V14.01,2013-02-05 19:04:00,
2013-02-05 13:09:00,50.9,29.2,30.16,SSW,211,5.0,12.0,43,0.00,,---,0.00,VWS V14.01,2013-02-05 19:09:00,
2013-02-05 13:14:00,51.0,29.3,30.16,SW,219,6.0,12.0,43,0.00,,---,0.00,VWS V14.01,2013-02-05 19:14:00,
2013-02-05 13:19:00,51.2,28.9,30.16,South,170,3.0,12.0,42,0.00,,---,0.00,VWS V14.01,2013-02-05 19:19:00,
2013-02-05 13:24:00,50.9,28.6,30.16,SSE,156,2.0,13.0,42,0.00,,---,0.00,VWS V14.01,2013-02-05 19:24:00,
2013-02-05 13:29:00,51.2,29.5,30.16,South,187,3.0,13.0,43,0.00,,---,0.00,VWS V14.01,2013-02-05 19:29:00,
2013-02-05 13:34:00,51.5,28.6,30.16,SE,139,7.0,13.0,41,0.00,,---,0.00,VWS V14.01,2013-02-05 19:34:00,
2013-02-05 13:39:00,51.6,28.1,30.15,SSE,149,8.0,13.0,40,0.00,,---,0.00,VWS V14.01,2013-02-05 19:39:00,
2013-02-05 13:44:00,51.6,28.7,30.15,SSE,168,4.0,14.0,41,0.00,,---,0.00,VWS V14.01,2013-02-05 19:44:00,
2013-02-05 13:49:00,51.5,28.0,30.15,SW,232,7.0,14.0,40,0.00,,---,0.00,VWS V14.01,2013-02-05 19:49:00,
2013-02-05 13:54:00,51.7,28.2,30.15,SW,234,3.0,14.0,40,0.00,,---,0.00,VWS V14.01,2013-02-05 19:54:00,
2013-02-05 13:59:00,51.7,28.8,30.15,SSE,152,10.0,14.0,41,0.00,,---,0.00,VWS V14.01,2013-02-05 19:59:00,
2013-02-05 14:04:00,51.8,27.6,30.15,SSW,193,7.0,14.0,39,0.00,,---,0.00,VWS V14.01,2013-02-05 20:04:00,
2013-02-05 14:09:00,52.0,27.8,30.15,South,179,9.0,14.0,39,0.00,,---,0.00,VWS V14.01,2013-02-05 20:09:00,
2013-02-05 14:14:00,51.9,27.7,30.15,South,184,3.0,14.0,39,0.00,,---,0.00,VWS V14.01,2013-02-05 20:14:00,
2013-02-05 14:19:00,52.1,27.9,30.14,SSE,158,5.0,14.0,39,0.00,,---,0.00,VWS V14.01,2013-02-05 20:19:00,
2013-02-05 14:24:00,52.2,27.4,30.14,SSW,210,7.0,14.0,38,0.00,,---,0.00,VWS V14.01,2013-02-05 20:24:00,
2013-02-05 14:29:00,52.2,27.4,30.14,South,180,6.0,14.0,38,0.00,,---,0.00,VWS V14.01,2013-02-05 20:29:00,
2013-02-05 14:34:00,52.2,27.4,30.14,SSE,154,7.0,9.0,38,0.00,,---,0.00,VWS V14.01,2013-02-05 20:34:00,
2013-02-05 14:39:00,52.2,27.4,30.14,SSE,152,6.0,9.0,38,0.00,,---,0.00,VWS V14.01,2013-02-05 20:39:00,
2013-02-05 14:44:00,52.3,27.5,30.14,South,186,2.0,9.0,38,0.00,,---,0.00,VWS V14.01,2013-02-05 20:44:00,
2013-02-05 14:49:00,52.3,27.5,30.13,SSE,149,5.0,14.0,38,0.00,,---,0.00,VWS V14.01,2013-02-05 20:49:00,
2013-02-05 14:54:00,52.3,26.8,30.13,SSW,200,5.0,14.0,37,0.00,,---,0.00,VWS V14.01,2013-02-05 20:54:00,
2013-02-05 14:59:00,52.3,27.5,30.13,SW,231,7.0,14.0,38,0.00,,---,0.00,VWS V14.01,2013-02-05 20:59:00,
2013-02-05 15:04:00,52.6,27.1,30.13,SSE,160,5.0,8.0,37,0.00,,---,0.00,VWS V14.01,2013-02-05 21:04:00,
2013-02-05 15:09:00,52.7,26.5,30.13,SSE,168,3.0,8.0,36,0.00,,---,0.00,VWS V14.01,2013-02-05 21:09:00,
2013-02-05 15:14:00,52.6,26.4,30.13,South,181,4.0,8.0,36,0.00,,---,0.00,VWS V14.01,2013-02-05 21:14:00,
2013-02-05 15:19:00,52.6,26.4,30.13,South,170,4.0,8.0,36,0.00,,---,0.00,VWS V14.01,2013-02-05 21:19:00,
2013-02-05 15:24:00,52.3,26.2,30.13,SSE,165,3.0,8.0,36,0.00,,---,0.00,VWS V14.01,2013-02-05 21:24:00,
2013-02-05 15:29:00,52.6,26.4,30.13,SSW,194,2.0,8.0,36,0.00,,---,0.00,VWS V14.01,2013-02-05 21:29:00,
2013-02-05 15:34:00,52.5,25.7,30.13,SSE,151,4.0,10.0,35,0.00,,---,0.00,VWS V14.01,2013-02-05 21:34:00,
2013-02-05 15:39:00,52.7,25.8,30.13,SW,227,4.0,10.0,35,0.00,,---,0.00,VWS V14.01,2013-02-05 21:39:00,
2013-02-05 15:44:00,52.7,25.8,30.13,SSW,204,5.0,10.0,35,0.00,,---,0.00,VWS V14.01,2013-02-05 21:44:00,
2013-02-05 15:49:00,52.6,25.0,30.13,South,179,3.0,10.0,34,0.00,,---,0.00,VWS V14.01,2013-02-05 21:49:00,
2013-02-05 15:54:00,52.7,25.1,30.13,South,177,3.0,10.0,34,0.00,,---,0.00,VWS V14.01,2013-02-05 21:54:00,
2013-02-05 15:59:00,52.6,25.0,30.13,South,173,6.0,10.0,34,0.00,,---,0.00,VWS V14.01,2013-02-05 21:59:00,
2013-02-05 16:04:00,52.6,25.8,30.13,South,171,1.0,4.0,35,0.00,,---,0.00,VWS V14.01,2013-02-05 22:04:00,
2013-02-05 16:09:00,52.7,25.1,30.13,SSE,168,2.0,7.0,34,0.00,,---,0.00,VWS V14.01,2013-02-05 22:09:00,
2013-02-05 16:14:00,52.4,24.9,30.13,SSE,162,3.0,7.0,34,0.00,,---,0.00,VWS V14.01,2013-02-05 22:14:00,
2013-02-05 16:19:00,52.5,25.0,30.13,SSE,168,2.0,7.0,34,0.00,,---,0.00,VWS V14.01,2013-02-05 22:19:00,
2013-02-05 16:24:00,52.3,24.8,30.13,South,184,4.0,9.0,34,0.00,,---,0.00,VWS V14.01,2013-02-05 22:24:00,
2013-02-05 16:29:00,52.2,24.7,30.13,SSE,160,4.0,9.0,34,0.00,,---,0.00,VWS V14.01,2013-02-05 22:29:00,
2013-02-05 16:34:00,52.0,24.5,30.13,South,190,3.0,5.0,34,0.00,,---,0.00,VWS V14.01,2013-02-05 22:34:00,
2013-02-05 16:39:00,51.8,24.3,30.13,SSE,162,2.0,6.0,34,0.00,,---,0.00,VWS V14.01,2013-02-05 22:39:00,
2013-02-05 16:44:00,51.8,24.3,30.13,SSE,168,1.0,6.0,34,0.00,,---,0.00,VWS V14.01,2013-02-05 22:44:00,
2013-02-05 16:49:00,51.5,24.1,30.13,SSE,149,2.0,6.0,34,0.00,,---,0.00,VWS V14.01,2013-02-05 22:49:00,
2013-02-05 16:54:00,51.4,24.0,30.13,SSE,165,2.0,6.0,34,0.00,,---,0.00,VWS V14.01,2013-02-05 22:54:00,
2013-02-05 16:59:00,51.3,23.9,30.13,SSE,165,3.0,6.0,34,0.00,,---,0.00,VWS V14.01,2013-02-05 22:59:00,
2013-02-05 17:04:00,51.3,24.6,30.12,South,183,5.0,5.0,35,0.00,,---,0.00,VWS V14.01,2013-02-05 23:04:00,
2013-02-05 17:09:00,51.0,24.3,30.13,SSW,210,3.0,6.0,35,0.00,,---,0.00,VWS V14.01,2013-02-05 23:09:00,
2013-02-05 17:14:00,50.8,24.1,30.12,SSE,148,0.0,6.0,35,0.00,,---,0.00,VWS V14.01,2013-02-05 23:14:00,
2013-02-05 17:19:00,50.6,24.6,30.13,SSE,149,1.0,6.0,36,0.00,,---,0.00,VWS V14.01,2013-02-05 23:19:00,
2013-02-05 17:24:00,50.6,24.6,30.12,SSE,149,0.0,6.0,36,0.00,,---,0.00,VWS V14.01,2013-02-05 23:24:00,
2013-02-05 17:29:00,50.5,24.6,30.12,SSE,149,1.0,6.0,36,0.00,,---,0.00,VWS V14.01,2013-02-05 23:29:00,
2013-02-05 17:34:00,50.1,24.2,30.12,SSE,148,0.0,0.0,36,0.00,,---,0.00,VWS V14.01,2013-02-05 23:34:00,
2013-02-05 17:39:00,49.8,24.6,30.12,SSE,148,0.0,0.0,37,0.00,,---,0.00,VWS V14.01,2013-02-05 23:39:00,
2013-02-05 17:44:00,49.3,24.1,30.12,SSE,149,0.0,0.0,37,0.00,,---,0.00,VWS V14.01,2013-02-05 23:44:00,
2013-02-05 17:49:00,48.6,24.2,30.12,SSE,149,0.0,0.0,38,0.00,,---,0.00,VWS V14.01,2013-02-05 23:49:00,
2013-02-05 17:54:00,48.1,24.3,30.12,SSE,149,0.0,0.0,39,0.00,,---,0.00,VWS V14.01,2013-02-05 23:54:00,
2013-02-05 17:59:00,47.9,24.1,30.12,SSE,148,0.0,1.0,39,0.00,,---,0.00,VWS V14.01,2013-02-05 23:59:00,
2013-02-05 18:04:00,47.7,24.6,30.12,SSE,148,0.0,0.0,40,0.00,,---,0.00,VWS V14.01,2013-02-06 00:04:00,
2013-02-05 18:09:00,47.2,24.1,30.12,SSE,148,0.0,0.0,40,0.00,,---,0.00,VWS V14.01,2013-02-06 00:09:00,
2013-02-05 18:14:00,46.9,23.9,30.12,SSE,148,0.0,0.0,40,0.00,,---,0.00,VWS V14.01,2013-02-06 00:14:00,
2013-02-05 18:19:00,46.6,24.2,30.12,SSE,148,0.0,0.0,41,0.00,,---,0.00,VWS V14.01,2013-02-06 00:19:00,
2013-02-05 18:24:00,46.3,24.5,30.13,SSE,148,0.0,1.0,42,0.00,,---,0.00,VWS V14.01,2013-02-06 00:24:00,
2013-02-05 18:29:00,45.9,24.7,30.12,SSE,148,0.0,1.0,43,0.00,,---,0.00,VWS V14.01,2013-02-06 00:29:00,
2013-02-05 18:34:00,45.6,24.4,30.13,SSE,148,0.0,0.0,43,0.00,,---,0.00,VWS V14.01,2013-02-06 00:34:00,
2013-02-05 18:39:00,45.3,24.7,30.12,SSE,148,0.0,0.0,44,0.00,,---,0.00,VWS V14.01,2013-02-06 00:39:00,
2013-02-05 18:44:00,45.1,24.5,30.13,SSE,148,0.0,0.0,44,0.00,,---,0.00,VWS V14.01,2013-02-06 00:44:00,
2013-02-05 18:49:00,45.0,24.4,30.13,SSE,148,0.0,1.0,44,0.00,,---,0.00,VWS V14.01,2013-02-06 00:49:00,
2013-02-05 18:54:00,44.7,24.7,30.13,SSE,148,0.0,1.0,45,0.00,,---,0.00,VWS V14.01,2013-02-06 00:54:00,
2013-02-05 18:59:00,44.3,24.8,30.13,SSE,148,1.0,1.0,46,0.00,,---,0.00,VWS V14.01,2013-02-06 00:59:00,
2013-02-05 19:04:00,43.6,24.7,30.13,SSE,149,1.0,1.0,47,0.00,,---,0.00,VWS V14.01,2013-02-06 01:04:00,
2013-02-05 19:09:00,42.9,24.6,30.13,SE,146,1.0,1.0,48,0.00,,---,0.00,VWS V14.01,2013-02-06 01:09:00,
2013-02-05 19:14:00,42.7,24.4,30.13,SSE,148,0.0,1.0,48,0.00,,---,0.00,VWS V14.01,2013-02-06 01:14:00,
2013-02-05 19:19:00,42.6,24.8,30.13,SSE,148,0.0,1.0,49,0.00,,---,0.00,VWS V14.01,2013-02-06 01:19:00,
2013-02-05 19:24:00,42.3,24.5,30.13,SSE,149,0.0,1.0,49,0.00,,---,0.00,VWS V14.01,2013-02-06 01:24:00,
2013-02-05 19:29:00,42.2,23.9,30.13,SSE,148,0.0,1.0,48,0.00,,---,0.00,VWS V14.01,2013-02-06 01:29:00,
2013-02-05 19:34:00,41.7,24.5,30.13,SSE,148,0.0,0.0,50,0.00,,---,0.00,VWS V14.01,2013-02-06 01:34:00,
2013-02-05 19:39:00,41.3,24.1,30.14,SSE,148,0.0,0.0,50,0.00,,---,0.00,VWS V14.01,2013-02-06 01:39:00,
2013-02-05 19:44:00,41.1,24.4,30.14,SSE,148,0.0,0.0,51,0.00,,---,0.00,VWS V14.01,2013-02-06 01:44:00,
2013-02-05 19:49:00,40.9,24.6,30.14,SSE,148,0.0,1.0,52,0.00,,---,0.00,VWS V14.01,2013-02-06 01:49:00,
2013-02-05 19:54:00,40.5,24.7,30.14,SSE,148,0.0,1.0,53,0.00,,---,0.00,VWS V14.01,2013-02-06 01:54:00,
2013-02-05 19:59:00,40.5,24.7,30.14,SSE,148,0.0,1.0,53,0.00,,---,0.00,VWS V14.01,2013-02-06 01:59:00,
2013-02-05 20:04:00,40.5,24.7,30.14,SSE,149,0.0,0.0,53,0.00,,---,0.00,VWS V14.01,2013-02-06 02:04:00,
2013-02-05 20:09:00,40.5,24.7,30.14,ENE,59,0.0,2.0,53,0.00,,---,0.00,VWS V14.01,2013-02-06 02:09:00,
2013-02-05 20:14:00,40.4,24.6,30.14,ENE,59,0.0,2.0,53,0.00,,---,0.00,VWS V14.01,2013-02-06 02:14:00,
2013-02-05 20:19:00,40.0,24.7,30.14,ENE,59,0.0,2.0,54,0.00,,---,0.00,VWS V14.01,2013-02-06 02:19:00,
2013-02-05 20:24:00,39.9,24.2,30.14,ENE,66,0.0,2.0,53,0.00,,---,0.00,VWS V14.01,2013-02-06 02:24:00,
2013-02-05 20:29:00,40.0,24.3,30.14,ENE,66,1.0,3.0,53,0.00,,---,0.00,VWS V14.01,2013-02-06 02:29:00,
2013-02-05 20:34:00,40.2,24.5,30.14,ENE,66,0.0,0.0,53,0.00,,---,0.00,VWS V14.01,2013-02-06 02:34:00,
2013-02-05 20:39:00,40.1,24.4,30.14,ENE,66,0.0,2.0,53,0.00,,---,0.00,VWS V14.01,2013-02-06 02:39:00,
2013-02-05 20:44:00,40.0,24.3,30.13,ENE,66,0.0,2.0,53,0.00,,---,0.00,VWS V14.01,2013-02-06 02:44:00,
2013-02-05 20:49:00,39.9,24.6,30.13,East,84,0.0,2.0,54,0.00,,---,0.00,VWS V14.01,2013-02-06 02:49:00,
2013-02-05 20:54:00,39.7,24.4,30.14,East,83,0.0,2.0,54,0.00,,---,0.00,VWS V14.01,2013-02-06 02:54:00,
2013-02-05 20:59:00,39.6,25.2,30.14,East,80,0.0,3.0,56,0.00,,---,0.00,VWS V14.01,2013-02-06 02:59:00,
2013-02-05 21:04:00,39.5,25.5,30.14,ENE,60,2.0,4.0,57,0.00,,---,0.00,VWS V14.01,2013-02-06 03:04:00,
2013-02-05 21:09:00,39.4,25.9,30.14,East,92,2.0,4.0,58,0.00,,---,0.00,VWS V14.01,2013-02-06 03:09:00,
2013-02-05 21:14:00,39.2,25.7,30.14,ENE,66,2.0,4.0,58,0.00,,---,0.00,VWS V14.01,2013-02-06 03:14:00,
2013-02-05 21:19:00,39.2,26.1,30.14,NE,40,1.0,4.0,59,0.00,,---,0.00,VWS V14.01,2013-02-06 03:19:00,
2013-02-05 21:24:00,39.1,26.4,30.14,NNE,19,1.0,4.0,60,0.00,,---,0.00,VWS V14.01,2013-02-06 03:24:00,
2013-02-05 21:29:00,39.2,26.5,30.14,ENE,57,1.0,4.0,60,0.00,,---,0.00,VWS V14.01,2013-02-06 03:29:00,
2013-02-05 21:34:00,39.3,27.0,30.14,ENE,59,1.0,2.0,61,0.00,,---,0.00,VWS V14.01,2013-02-06 03:34:00,
2013-02-05 21:39:00,39.4,27.5,30.14,NNE,23,3.0,5.0,62,0.00,,---,0.00,VWS V14.01,2013-02-06 03:39:00,
2013-02-05 21:44:00,39.5,28.0,30.14,ENE,61,1.0,5.0,63,0.00,,---,0.00,VWS V14.01,2013-02-06 03:44:00,
2013-02-05 21:49:00,39.5,28.0,30.13,ENE,75,2.0,5.0,63,0.00,,---,0.00,VWS V14.01,2013-02-06 03:49:00,
2013-02-05 21:54:00,39.7,28.1,30.13,NE,45,4.0,5.0,63,0.00,,---,0.00,VWS V14.01,2013-02-06 03:54:00,
2013-02-05 21:59:00,39.9,28.7,30.13,ENE,68,1.0,5.0,64,0.00,,---,0.00,VWS V14.01,2013-02-06 03:59:00,
2013-02-05 22:04:00,39.9,28.7,30.14,East,85,2.0,2.0,64,0.00,,---,0.00,VWS V14.01,2013-02-06 04:04:00,
2013-02-05 22:09:00,39.9,29.1,30.14,NNE,24,2.0,6.0,65,0.00,,---,0.00,VWS V14.01,2013-02-06 04:09:00,
2013-02-05 22:14:00,40.1,29.3,30.14,ENE,61,1.0,6.0,65,0.00,,---,0.00,VWS V14.01,2013-02-06 04:14:00,
2013-02-05 22:19:00,40.3,29.5,30.14,NNE,30,4.0,6.0,65,0.00,,---,0.00,VWS V14.01,2013-02-06 04:19:00,
2013-02-05 22:24:00,40.4,29.6,30.14,East,80,1.0,6.0,65,0.00,,---,0.00,VWS V14.01,2013-02-06 04:24:00,
2013-02-05 22:29:00,40.4,29.6,30.14,NE,34,3.0,6.0,65,0.00,,---,0.00,VWS V14.01,2013-02-06 04:29:00,
2013-02-05 22:34:00,40.7,29.9,30.14,ESE,108,2.0,5.0,65,0.00,,---,0.00,VWS V14.01,2013-02-06 04:34:00,
2013-02-05 22:39:00,40.8,30.0,30.14,NNW,348,3.0,6.0,65,0.00,,---,0.00,VWS V14.01,2013-02-06 04:39:00,
2013-02-05 22:44:00,40.9,30.1,30.14,ENE,64,1.0,6.0,65,0.00,,---,0.00,VWS V14.01,2013-02-06 04:44:00,
2013-02-05 22:49:00,40.9,30.1,30.13,NE,35,3.0,6.0,65,0.00,,---,0.00,VWS V14.01,2013-02-06 04:49:00,
2013-02-05 22:54:00,40.9,30.1,30.13,ENE,65,2.0,7.0,65,0.00,,---,0.00,VWS V14.01,2013-02-06 04:54:00,
2013-02-05 22:59:00,41.0,30.1,30.13,East,81,2.0,7.0,65,0.00,,---,0.00,VWS V14.01,2013-02-06 04:59:00,
2013-02-05 23:00:00,41.0,30.1,30.13,NE,54,3.0,7.0,65,0.00,,---,0.00,VWS V14.01,2013-02-06 05:00:00,
2013-02-05 23:05:00,41.0,30.5,30.13,East,89,2.0,5.0,66,0.00,,---,0.00,VWS V14.01,2013-02-06 05:05:00,
2013-02-05 23:10:00,41.0,30.5,30.13,NE,49,3.0,8.0,66,0.00,,---,0.00,VWS V14.01,2013-02-06 05:10:00,
2013-02-05 23:15:00,41.2,30.7,30.12,East,91,2.0,10.0,66,0.00,,---,0.00,VWS V14.01,2013-02-06 05:15:00,
2013-02-05 23:20:00,41.3,30.8,30.12,NE,36,2.0,10.0,66,0.00,,---,0.00,VWS V14.01,2013-02-06 05:20:00,
2013-02-05 23:25:00,41.4,30.9,30.11,NE,55,3.0,10.0,66,0.00,,---,0.00,VWS V14.01,2013-02-06 05:25:00,
2013-02-05 23:30:00,41.3,30.8,30.11,ENE,70,2.0,10.0,66,0.00,,---,0.00,VWS V14.01,2013-02-06 05:30:00,
2013-02-05 23:35:00,41.3,30.8,30.11,North,350,5.0,8.0,66,0.00,,---,0.00,VWS V14.01,2013-02-06 05:35:00,
2013-02-05 23:40:00,41.4,30.5,30.10,NNE,24,5.0,8.0,65,0.00,,---,0.00,VWS V14.01,2013-02-06 05:40:00,
2013-02-05 23:45:00,41.4,30.5,30.10,NE,55,5.0,10.0,65,0.00,,---,0.00,VWS V14.01,2013-02-06 05:45:00,
2013-02-05 23:50:00,41.4,30.5,30.10,NNW,336,4.0,10.0,65,0.00,,---,0.00,VWS V14.01,2013-02-06 05:50:00,
2013-02-05 23:55:00,41.3,30.4,30.10,ENE,64,3.0,10.0,65,0.00,,---,0.00,VWS V14.01,2013-02-06 05:55:00,